Wind_Speed
20 20 20 20 21 21 21 20 20 20 20 20 19 19 19 19 18 19 18 18 17 17 17 17 17 16 16 15 15 15 14 15 15 15 14 14 14 13 13 13 13 12 13 13 13 12 12 11 11
21 21 21 22 22 22 22 21 21 21 21 21 21 21 21 21 20 20 19 19 19 19 19 19 19 19 18 17 17 16 16 16 16 16 16 16 16 16 15 15 14 13 14 14 14 14 14 13 12
22 22 22 23 24 23 23 22 22 22 23 23 23 23 22 22 22 22 21 21 20 21 21 21 21 21 20 20 19 18 18 18 18 17 18 18 18 17 17 17 16 15 15 15 16 16 16 15 14
22 23 24 25 24 24 24 24 24 24 24 25 25 25 24 24 24 24 24 23 23 23 23 23 23 23 23 23 22 21 21 20 19 19 19 19 19 19 19 19 18 17 17 16 16 17 17 17 16
24 24 25 26 25 25 26 26 26 26 26 26 26 26 26 26 26 26 26 26 25 25 24 24 24 25 25 24 24 23 23 22 22 22 21 21 21 21 21 20 20 20 19 19 18 18 19 19 18
25 26 27 27 26 26 27 27 28 27 28 28 28 28 28 28 27 27 28 28 27 27 26 26 26 26 26 26 26 26 25 24 24 24 24 23 23 23 22 22 22 21 21 21 21 20 20 21 21
27 27 28 28 28 28 28 28 29 29 29 29 29 30 30 30 29 29 28 29 29 28 28 28 28 28 28 28 28 27 26 26 26 26 26 26 26 26 25 24 24 24 23 23 22 22 23 22 22
28 29 29 29 28 28 29 29 30 31 31 31 31 31 31 31 31 30 30 30 30 30 30 30 30 30 30 30 30 30 29 29 29 29 29 29 29 28 28 27 26 26 25 25 24 24 25 24 24
28 29 29 28 28 29 29 30 31 32 33 33 33 33 33 33 33 33 32 32 32 32 32 32 32 32 32 32 32 32 32 32 31 31 31 31 31 31 30 29 29 28 28 27 26 26 27 27 26
29 30 30 29 30 30 30 31 32 33 34 34 34 34 35 35 35 35 35 34 34 34 34 33 34 34 34 34 34 34 34 34 34 33 33 33 33 33 32 32 32 31 31 30 29 28 29 29 28
29 30 30 31 31 32 32 32 33 34 34 35 35 36 35 36 36 36 36 36 36 37 36 35 35 35 36 36 36 36 36 35 35 36 36 36 36 36 35 35 34 34 33 33 32 32 31 31 30
30 31 32 32 33 33 33 34 34 34 35 36 37 37 36 36 37 38 38 38 38 38 37 37 37 37 38 38 38 38 38 38 38 38 38 38 38 38 37 37 36 36 35 35 35 35 34 33 32
31 32 33 34 34 34 34 35 35 35 36 36 37 38 38 38 38 39 39 39 39 39 39 39 38 39 39 40 40 39 39 39 39 39 39 39 39 40 39 39 39 38 38 37 37 37 37 36 35
32 33 34 34 35 35 36 36 36 35 36 37 37 38 39 39 40 39 40 40 41 41 41 40 40 40 40 40 40 40 40 40 40 39 40 40 40 40 40 40 40 40 40 40 39 38 38 38 38
32 34 34 35 35 35 36 36 36 36 36 37 37 38 38 39 40 40 40 41 41 41 41 41 41 40 40 41 41 41 41 40 40 40 40 41 41 41 41 41 41 41 41 41 41 40 39 39 39
33 34 35 35 35 35 36 36 35 36 36 36 37 38 38 39 40 40 41 42 41 41 42 42 42 42 42 41 42 42 41 41 40 40 40 41 41 41 41 42 42 42 42 42 42 42 41 41 41
33 34 34 34 35 35 36 36 36 36 36 36 37 38 39 39 40 40 41 42 42 42 42 43 43 43 43 43 43 43 43 42 42 41 41 42 42 42 42 42 42 42 42 43 43 43 42 42 42
32 33 33 34 35 35 36 35 35 36 36 36 37 38 39 39 40 40 41 42 43 43 43 44 44 44 44 44 44 44 44 43 43 42 42 42 43 43 43 43 43 43 43 44 44 44 44 44 43
31 32 33 34 35 36 36 35 35 35 36 36 36 37 37 38 38 39 40 41 42 43 43 43 44 44 44 44 44 44 44 44 44 43 43 43 43 42 43 43 43 44 44 45 45 45 44 44 44
30 31 32 32 33 35 35 35 35 35 35 35 36 36 36 36 37 37 38 38 39 41 42 43 44 44 44 44 44 44 44 45 45 44 44 43 43 43 43 43 43 43 44 45 45 46 45 45 45
30 30 30 31 32 33 34 34 34 34 33 34 35 35 36 36 37 36 37 38 38 39 40 42 43 43 43 43 43 43 43 44 44 44 44 43 43 43 43 43 42 42 43 44 45 45 45 45 45
29 29 30 31 31 32 32 34 31 31 32 33 34 35 36 37 37 37 37 38 38 38 39 40 41 42 42 41 41 41 42 42 43 43 43 43 42 43 43 42 42 43 44 44 44 44 44 44 44
28 29 29 30 31 32 32 34 32 32 33 33 34 35 36 37 37 37 37 38 38 39 39 39 40 40 40 41 41 42 42 42 42 42 42 41 42 42 43 43 43 43 43 43 43 44 44 43 43
27 28 30 30 31 32 31 32 32 32 33 34 34 34 35 36 36 37 37 38 38 38 38 39 39 39 39 39 40 41 41 41 42 42 41 41 41 42 42 43 43 43 43 42 43 43 44 44 43
26 28 29 30 31 31 31 32 31 31 32 32 32 33 34 34 35 36 36 38 38 38 38 39 39 39 38 39 40 40 40 40 40 40 40 40 41 41 40 41 42 42 42 42 42 43 44 44 44
26 27 28 29 30 31 31 31 31 31 31 31 32 32 32 33 34 35 36 36 37 38 39 39 40 39 39 40 40 40 40 40 40 40 39 39 40 40 40 40 40 42 42 42 42 42 43 43 43
25 25 27 28 29 30 30 31 31 30 30 30 31 31 32 33 33 34 35 35 36 37 37 37 38 38 39 39 39 40 40 40 39 39 39 40 40 40 40 41 41 41 42 41 42 42 43 42 43
25 25 26 27 29 30 30 30 30 28 29 30 30 31 32 33 33 34 34 35 36 36 36 36 36 37 37 38 38 39 39 38 38 38 38 39 39 39 39 40 41 41 41 42 42 41 42 43 43
24 25 26 27 28 30 30 30 29 28 27 28 29 29 30 31 32 33 33 34 35 35 35 35 36 36 36 36 37 37 37 37 37 37 38 38 38 38 39 40 41 42 42 42 42 42 42 42 43
24 24 25 26 27 28 30 29 27 27 27 27 28 28 29 29 30 31 32 33 33 34 34 34 35 35 35 36 36 36 36 37 37 37 36 36 37 38 38 39 40 41 42 43 43 43 42 43 43
Wind_Direction
244 245 246 246 245 247 250 251 252 251 252 253 254 254 255 256 256 258 257 255 254 255 255 256 257 257 258 258 259 257 256 255 254 253 250 246 246 249 249 250 249 249 249 250 250 248 247 244 245
246 246 246 247 247 249 250 252 253 253 253 254 255 255 255 255 256 258 256 255 254 254 255 257 257 257 257 258 258 257 256 256 255 254 252 249 247 247 249 250 251 252 252 251 251 250 250 246 249
247 247 247 248 248 250 252 252 253 254 254 255 256 256 256 257 257 257 257 256 255 255 256 256 256 256 256 256 257 257 257 256 255 254 253 253 252 249 249 250 252 252 253 254 252 252 252 249 249
248 248 249 251 251 251 253 253 254 256 256 256 256 256 256 256 257 257 257 257 257 257 257 256 257 257 257 257 257 256 257 257 255 255 254 254 254 252 251 253 253 253 255 254 254 254 254 251 251
250 250 251 253 254 253 254 255 256 257 257 256 256 257 256 256 256 256 257 257 257 257 257 257 257 257 258 258 257 257 257 255 255 256 256 254 254 253 253 254 254 254 256 256 257 256 255 255 253
252 252 252 253 253 254 255 256 256 257 257 256 256 256 257 257 256 256 256 257 256 257 258 258 258 258 258 259 259 259 257 257 257 257 257 256 254 253 253 254 255 255 255 256 257 257 257 258 257
254 253 254 254 254 255 255 256 256 256 257 256 256 256 257 258 258 257 258 258 258 258 258 258 258 258 259 259 259 258 258 257 258 258 257 257 255 254 254 254 255 255 256 256 257 258 258 258 258
256 256 256 256 256 256 256 256 257 257 257 257 257 257 257 258 258 259 259 259 259 259 260 260 258 258 258 258 258 259 259 258 258 258 258 257 256 255 254 255 256 256 255 256 258 258 260 259 258
257 256 256 257 257 257 257 258 258 258 257 258 258 258 258 258 258 259 259 259 259 259 260 260 259 258 258 258 259 259 259 258 258 258 258 258 257 255 255 255 255 255 256 256 258 259 261 261 260
258 258 258 258 258 258 259 260 259 259 259 259 259 259 259 259 259 259 259 259 259 260 260 259 258 257 257 257 258 258 258 259 259 259 258 258 256 256 255 254 254 254 255 256 258 259 260 261 262
259 259 259 259 259 259 259 260 261 260 259 260 259 259 260 260 259 259 259 259 259 259 259 258 257 257 257 257 257 258 258 258 259 259 259 258 257 256 255 255 254 254 255 256 258 258 259 260 261
261 261 260 260 260 260 260 260 260 260 261 260 260 259 260 260 260 259 259 259 259 259 258 258 257 257 256 256 257 258 259 259 259 259 258 257 257 256 255 255 255 255 255 256 257 258 259 259 259
262 262 262 262 261 261 261 261 261 261 261 261 261 261 260 259 259 260 260 260 260 259 259 258 257 257 257 257 257 258 258 259 259 259 258 257 257 256 256 256 256 256 256 256 256 257 258 259 259
264 263 263 262 262 261 261 261 262 262 261 261 261 261 261 260 260 259 260 260 260 259 259 258 258 257 258 258 258 258 258 259 259 260 259 257 256 256 256 255 256 256 257 257 257 257 257 258 259
265 264 263 262 262 261 262 262 263 262 262 261 262 261 261 262 262 262 260 260 260 259 258 257 257 258 258 259 259 258 258 259 260 260 259 257 256 255 255 256 256 257 257 258 258 257 257 257 257
266 265 263 263 263 262 262 263 263 262 262 262 262 263 263 263 262 262 261 260 260 260 259 258 258 257 258 259 259 258 258 258 259 260 259 257 256 256 256 257 257 258 257 257 257 257 257 257 258
268 267 266 265 264 262 262 262 262 262 263 263 264 264 263 263 263 262 261 261 261 260 260 259 259 258 259 260 260 259 259 259 259 260 259 258 256 256 257 256 257 256 256 256 256 256 257 258 258
271 269 267 266 265 264 263 262 262 263 263 263 264 264 264 264 264 263 262 261 261 260 260 260 259 259 259 260 261 260 260 260 261 260 259 259 258 258 259 258 256 256 255 256 256 256 257 258 258
273 270 268 267 266 264 263 263 264 264 263 263 265 266 266 265 266 265 264 262 262 261 260 259 260 260 260 260 261 261 260 260 261 261 259 258 258 258 259 258 257 256 256 256 256 256 257 257 258
274 271 269 268 266 264 263 263 264 264 264 265 266 267 267 266 267 267 266 264 263 262 260 260 260 261 261 261 261 261 260 260 260 260 259 258 258 258 257 256 255 257 257 257 257 257 257 258 259
276 273 271 271 269 267 267 265 265 265 266 265 266 267 266 267 267 268 267 266 266 265 263 262 261 261 261 260 260 260 260 260 260 260 260 259 259 258 258 258 256 256 257 257 257 258 258 258 259
277 274 272 272 272 269 268 268 266 267 267 267 267 267 267 267 267 268 268 267 267 267 265 263 262 261 260 260 260 260 260 260 260 261 261 260 259 258 257 256 256 256 256 257 257 258 258 257 258
279 276 274 274 273 272 270 270 269 270 269 270 271 270 268 268 268 269 268 268 268 267 265 263 263 262 260 259 260 260 260 260 260 261 261 261 259 259 257 256 256 256 256 256 257 258 257 258 258
280 278 276 275 275 274 273 273 272 272 273 272 272 271 270 269 269 270 269 269 268 267 265 263 261 261 261 260 260 261 262 261 261 261 261 260 259 258 258 257 256 256 257 257 258 258 258 258 258
281 281 279 277 276 276 275 275 276 276 276 275 273 272 271 270 270 270 270 269 268 267 266 264 262 261 261 261 260 261 262 261 261 261 260 259 258 258 258 257 256 257 257 259 259 259 259 259 259
284 283 280 280 279 277 277 278 279 279 279 278 276 274 273 272 272 271 271 269 268 268 267 265 264 263 262 261 261 262 262 261 261 261 260 259 258 257 257 257 257 257 258 259 259 259 259 259 259
288 284 283 281 280 279 278 278 279 281 280 279 278 277 276 274 273 272 271 270 269 268 267 265 264 263 262 261 261 260 261 261 260 260 260 259 258 257 257 257 257 257 257 259 259 260 259 259 260
289 286 286 283 282 282 281 281 281 281 280 280 280 279 277 275 274 273 272 271 269 268 268 266 264 263 263 261 260 259 260 260 259 259 259 258 258 257 257 257 258 258 258 259 259 260 260 260 260
292 290 287 285 283 283 283 283 284 284 284 283 282 281 280 278 276 275 274 272 271 269 268 266 265 265 265 262 260 258 258 259 259 259 258 258 258 258 258 259 259 259 258 258 258 259 260 260 261
294 293 290 287 287 285 284 285 284 284 285 285 283 282 283 282 280 277 275 273 271 269 268 266 265 265 265 262 261 259 257 258 258 258 258 258 258 260 260 261 261 261 260 259 258 259 260 261 262
Height
5826 5828 5829 5830 5832 5832 5833 5834 5834 5835 5836 5836 5836 5837 5838 5838 5840 5842 5840 5839 5839 5840 5840 5841 5841 5841 5842 5842 5842 5842 5842 5842 5842 5842 5842 5842 5843 5843 5843 5843 5843 5844 5844 5844 5844 5844 5844 5845 5845
5822 5824 5825 5826 5827 5828 5829 5830 5830 5831 5832 5832 5832 5833 5833 5834 5835 5835 5835 5835 5836 5836 5837 5837 5838 5838 5838 5838 5839 5839 5839 5839 5839 5839 5839 5839 5840 5840 5840 5840 5841 5841 5841 5841 5841 5842 5842 5842 5843
5818 5819 5821 5822 5822 5824 5825 5825 5826 5826 5827 5828 5828 5828 5829 5830 5830 5831 5831 5831 5832 5832 5833 5833 5834 5834 5834 5835 5835 5835 5835 5836 5836 5836 5836 5836 5836 5837 5837 5837 5838 5838 5838 5838 5838 5839 5839 5839 5840
5814 5815 5816 5817 5818 5819 5820 5820 5821 5822 5822 5823 5823 5824 5824 5825 5826 5826 5827 5827 5827 5828 5828 5829 5829 5830 5830 5830 5831 5831 5831 5832 5832 5832 5832 5832 5833 5833 5834 5834 5834 5834 5835 5835 5835 5835 5836 5836 5837
5809 5810 5811 5811 5813 5814 5814 5815 5816 5816 5817 5817 5818 5818 5819 5820 5820 5821 5821 5822 5822 5823 5823 5824 5824 5825 5825 5826 5826 5826 5827 5827 5827 5828 5828 5828 5828 5829 5830 5830 5830 5831 5831 5831 5832 5832 5832 5833 5833
5803 5804 5805 5806 5807 5808 5808 5809 5810 5810 5811 5812 5812 5812 5813 5814 5814 5815 5816 5816 5817 5817 5818 5818 5819 5820 5820 5820 5821 5821 5822 5822 5823 5823 5823 5824 5824 5824 5825 5826 5826 5827 5827 5827 5828 5828 5828 5829 5829
5798 5798 5799 5800 5801 5802 5803 5803 5803 5804 5805 5805 5806 5806 5807 5808 5808 5809 5810 5810 5811 5812 5812 5813 5813 5814 5814 5815 5815 5816 5816 5816 5817 5818 5818 5818 5819 5819 5820 5821 5821 5822 5822 5823 5823 5823 5824 5824 5825
5791 5792 5792 5794 5795 5796 5796 5796 5796 5797 5798 5799 5799 5800 5801 5802 5802 5802 5803 5804 5805 5805 5806 5806 5807 5807 5808 5808 5809 5809 5810 5810 5811 5812 5812 5812 5813 5814 5814 5815 5816 5817 5817 5818 5818 5819 5819 5819 5820
5784 5786 5786 5788 5788 5789 5789 5789 5790 5790 5791 5791 5792 5793 5794 5794 5795 5796 5797 5797 5798 5799 5799 5800 5800 5801 5801 5802 5802 5803 5803 5804 5804 5805 5805 5806 5807 5807 5808 5809 5810 5811 5811 5812 5813 5813 5813 5814 5814
5777 5778 5780 5781 5781 5781 5782 5782 5782 5783 5783 5784 5785 5785 5786 5787 5788 5788 5789 5790 5791 5791 5792 5792 5793 5793 5794 5794 5795 5795 5796 5796 5797 5797 5798 5799 5799 5800 5801 5802 5803 5805 5805 5806 5806 5807 5808 5808 5808
5770 5771 5773 5773 5773 5773 5774 5774 5774 5775 5776 5777 5777 5778 5778 5779 5779 5780 5781 5782 5783 5783 5784 5784 5785 5786 5786 5786 5787 5787 5788 5789 5789 5790 5790 5791 5792 5793 5794 5795 5796 5798 5799 5800 5800 5801 5802 5802 5802
5763 5764 5764 5765 5765 5765 5766 5766 5766 5767 5768 5768 5768 5769 5769 5770 5771 5772 5773 5773 5774 5774 5775 5776 5776 5777 5778 5778 5779 5779 5779 5780 5781 5781 5781 5782 5783 5784 5785 5787 5788 5790 5791 5792 5793 5794 5795 5795 5796
5755 5756 5756 5756 5757 5757 5757 5757 5758 5759 5759 5759 5759 5760 5760 5761 5762 5763 5763 5764 5765 5766 5766 5767 5768 5768 5768 5769 5769 5770 5770 5771 5771 5772 5772 5773 5774 5775 5776 5778 5780 5781 5783 5784 5785 5786 5787 5788 5789
5747 5747 5748 5748 5748 5748 5748 5748 5749 5750 5750 5750 5750 5751 5751 5752 5752 5753 5754 5755 5756 5756 5757 5757 5758 5759 5759 5759 5760 5760 5761 5761 5762 5762 5762 5763 5765 5766 5767 5769 5771 5772 5774 5775 5777 5778 5779 5780 5781
5739 5739 5739 5739 5739 5739 5740 5740 5741 5741 5740 5741 5741 5741 5742 5742 5742 5743 5744 5745 5746 5746 5747 5748 5748 5749 5749 5750 5750 5750 5751 5751 5752 5752 5752 5754 5755 5756 5758 5759 5761 5763 5764 5766 5767 5768 5770 5771 5772
5730 5730 5730 5731 5730 5730 5732 5732 5732 5731 5731 5732 5732 5732 5732 5732 5733 5733 5734 5735 5736 5736 5737 5738 5738 5739 5740 5740 5740 5741 5741 5741 5742 5742 5743 5744 5745 5747 5748 5750 5752 5753 5755 5756 5758 5759 5760 5762 5763
5721 5721 5721 5722 5721 5721 5721 5722 5722 5722 5722 5722 5722 5722 5722 5722 5723 5723 5724 5725 5726 5727 5727 5728 5728 5729 5729 5730 5730 5731 5731 5732 5732 5733 5733 5734 5736 5737 5738 5740 5742 5743 5745 5746 5748 5749 5750 5752 5753
5714 5713 5713 5713 5712 5711 5711 5712 5713 5712 5712 5712 5712 5712 5712 5712 5712 5712 5713 5714 5715 5716 5716 5717 5717 5718 5719 5719 5720 5721 5721 5722 5722 5723 5723 5724 5725 5727 5728 5729 5731 5732 5734 5736 5737 5739 5741 5742 5743
5704 5703 5703 5703 5702 5702 5702 5702 5703 5703 5703 5703 5702 5702 5702 5702 5702 5702 5702 5703 5703 5704 5705 5706 5706 5707 5708 5708 5709 5710 5711 5711 5712 5712 5713 5714 5715 5716 5717 5719 5720 5722 5724 5725 5727 5729 5730 5732 5733
5696 5694 5694 5694 5693 5692 5692 5693 5694 5693 5693 5693 5693 5693 5692 5692 5692 5692 5692 5692 5692 5693 5694 5695 5695 5696 5697 5697 5698 5699 5700 5700 5701 5701 5702 5703 5704 5705 5706 5708 5710 5711 5713 5715 5716 5718 5720 5721 5722
5687 5686 5685 5685 5684 5684 5683 5684 5685 5684 5684 5684 5683 5683 5682 5682 5682 5681 5681 5681 5682 5682 5683 5683 5684 5685 5685 5686 5687 5688 5689 5689 5690 5691 5692 5693 5694 5695 5696 5697 5699 5701 5702 5704 5706 5707 5709 5710 5712
5679 5678 5677 5676 5675 5675 5675 5674 5677 5675 5675 5674 5674 5673 5672 5672 5672 5671 5671 5671 5671 5671 5672 5673 5673 5674 5675 5675 5676 5677 5678 5679 5680 5680 5681 5682 5683 5684 5686 5687 5689 5690 5692 5694 5695 5696 5698 5699 5701
5671 5670 5669 5668 5667 5666 5667 5665 5667 5666 5666 5665 5664 5663 5662 5662 5661 5661 5661 5661 5661 5661 5661 5662 5663 5663 5664 5665 5666 5667 5667 5668 5669 5670 5670 5671 5672 5674 5675 5677 5678 5680 5682 5683 5684 5685 5687 5688 5690
5662 5662 5661 5660 5658 5658 5659 5657 5657 5657 5657 5655 5654 5653 5652 5652 5651 5651 5650 5650 5650 5650 5650 5651 5652 5653 5654 5655 5655 5656 5657 5657 5658 5659 5660 5661 5662 5663 5664 5666 5667 5669 5670 5672 5673 5675 5676 5677 5679
5656 5654 5652 5650 5649 5649 5649 5648 5649 5648 5647 5645 5644 5643 5642 5641 5641 5640 5640 5640 5640 5639 5639 5640 5640 5642 5642 5644 5644 5645 5645 5646 5647 5648 5649 5650 5651 5652 5653 5655 5656 5658 5659 5661 5662 5664 5665 5667 5668
5649 5647 5646 5643 5641 5641 5640 5639 5641 5639 5637 5635 5634 5633 5632 5631 5631 5630 5630 5629 5629 5629 5629 5629 5629 5630 5631 5632 5633 5634 5635 5636 5637 5638 5639 5640 5641 5642 5643 5644 5646 5647 5649 5650 5651 5653 5654 5655 5657
5641 5640 5638 5635 5633 5632 5631 5631 5632 5630 5628 5626 5625 5623 5622 5621 5620 5620 5619 5619 5618 5618 5618 5618 5618 5619 5620 5621 5622 5623 5624 5625 5626 5627 5628 5629 5630 5632 5633 5634 5635 5636 5638 5639 5640 5641 5643 5644 5645
5635 5633 5631 5628 5625 5624 5623 5623 5623 5621 5619 5618 5616 5613 5612 5611 5610 5609 5609 5609 5608 5607 5607 5607 5607 5608 5609 5610 5611 5612 5613 5614 5615 5616 5618 5619 5620 5621 5622 5623 5624 5626 5626 5628 5629 5630 5631 5633 5634
5629 5626 5623 5621 5619 5617 5615 5617 5615 5612 5610 5609 5606 5604 5603 5601 5600 5600 5599 5598 5597 5597 5596 5596 5597 5597 5598 5599 5600 5601 5603 5604 5605 5606 5607 5608 5609 5610 5612 5613 5614 5615 5615 5616 5617 5619 5620 5621 5622
5621 5619 5617 5615 5612 5610 5607 5610 5607 5605 5602 5600 5598 5596 5594 5592 5591 5589 5588 5587 5587 5586 5586 5586 5586 5587 5587 5588 5589 5590 5592 5594 5595 5596 5597 5598 5599 5600 5601 5602 5603 5603 5604 5605 5606 5607 5608 5609 5610